Weather in Davydovo

Russia / Oryol Oblast     52°44′19″N   37°33′47″E
temp.,
°C
wind,
m/s
gust,
m/s
humid.,
%
clouds,
%
prec.,
mm/h
press.,
hPa
HPBL,
m
24 may, tue
tue2400:00+6w33770 0.0 100840
03:00+4wnw34720 0.0 100956
06:00+5wnw497423 0.0 1009213
09:00+10wnw5762100 0.0 1008513
12:00+13nw5751100 0.0 10091330
15:00+12nw6750100 0.0 10101321
18:00+12wnw386091 0.0 10101385
21:00+9w347058 0.0 101174
25 may, wed
wed2500:00+6nne478437 0.0 1013170
03:00+4n338910 0.0 101456
06:00+4n35855 0.0 1015206
09:00+8nnw3564100 0.0 1016874
12:00+10nw4662100 0.0 10171047
15:00+12nw5661100 0.0 10171475
18:00+11n236781 0.0 1016792
21:00+7se33835 0.0 101726
26 may, thu
thu2600:00+6s379122 0.0 1016119
03:00+7sw378892 0.0 1015134
06:00+10wsw498697 0.0 1014185
09:00+15wsw5872100 0.0 1012491
12:00+16sw91167100 0.4 10111333
15:00+10s71594100 4.9 1009991
18:00+10sw91597100 4.2 10051041
21:00+11wnw716895 4.4 1006779
27 may, fri
fri2700:00+10wsw716927 0.0 1007489
03:00+10wsw6149386 0.1 1006426
06:00+10wsw7149598 0.4 1005642
09:00+10w813880 0.9 1006911
12:00+14wnw10136514 0.1 10071668
15:00+16w8125899 0.2 10082261
18:00+15w6116686 0.0 10081500
21:00+11sw488090 0.0 1008154
28 may, sat
sat2800:00+11ssw61479100 0.0 1006411
03:00+11sw71592100 1.2 1003598
06:00+11wsw71393100 4.9 1003782
09:00+11w6985100 6.1 1004856
12:00+14w811614 0.6 10051503
15:00+14wsw81061100 0.8 10061759
18:00+12wsw6118053 1.3 1007983
21:00+8wsw4119122 1.8 1009333